Terminal Aerodrome Forecast
Issued by NWS

Home | Current Version | Previous Version | Text Only | Print | Product List | Glossary On
Versions: 1 2 3 4 5 6 7 8 9 10 11 12 13 14 15 16 17 18 19 20 21
000
FTUS41 KBGM 220500
TAFITH
TAF
KITH 220526Z 2206/2306 25007KT P6SM BKN035
      TEMPO 2206/2207 BKN025
     FM220700 29012KT P6SM OVC020
      TEMPO 2208/2212 -SHRA OVC008
     FM221600 31012G20KT P6SM BKN025
     FM222000 31012G20KT P6SM SCT025 BKN035
     FM230000 30010KT P6SM BKN035=

USA.gov is the U.S. government's official web portal to all federal, state and local government web resources and services.